Back to catalog

EGS

AJISAI

AliveScienceLEO
NORAD 16908·PAYLOAD·🇯🇵 Japan

Launched Aug 12, 1986 from Tanegashima Space Center

Loading…

Next Passes (next 24 hours)

TLE

FreshSource: CelesTrak SupGP

Epoch: Sep 14, 2026, 00:00 UTC

1 16908C 86061A   26257.00000000  .00000007  00000+0  50310-4 0  2573
2 16908  50.0075 234.2993 0011331  46.3471 225.4635 12.44517261    10

Track EGS in real time with AllMySat

Download on the App Store